Tracking 32579 objects as of 15-Dec-2025
HD Live streaming from Space Station
objects crossing your sky now

TEIKYOSAT-4 (OORURI)

Track TEIKYOSAT-4 (OORURI) now!
10-day predictions
TEIKYOSAT-4 (OORURI) is classified as:


NORAD ID: 49396
Int'l Code: 2021-102B
Perigee: 539.4 km
Apogee: 555.5 km
Inclination: 97.4 °
Period: 95.4 minutes
Semi major axis: 6918 km
RCS: Unknown
Launch date: November 9, 2021
Source: Japan (JPN)
Launch site: KAGOSHIMA SPACE CENTER UNIVERSITY OF TOKYO (KSCUT)

Uplink (MHz):
Downlink (MHz): 437.450/5831.000
Beacon (MHz): 437.450
Mode: 1k2AFSK/9k6GMSK/115k2FSK CW*
Call sign: JS1YHH
Status: Active

Your satellite tracking list
Your tracking list is empty




NASA's NSSDC Master Catalog

Two Line Element Set (TLE):
1 49396U 21102B   25349.32149806  .00002128  00000-0  13958-3 0  9995
2 49396  97.3899  20.8241 0011646 199.0761 161.0033 15.08653895224996
Source of the keplerian elements: AMSAT